Meteo Giornale » Osservazioni meteo Stati Uniti (USA) » Elmira-Corning
ore: 05:53 - Osservazioni Meteo Elmira-Corning
Lat. 42° 9' N Lon. 76° 54' W Alt. 291 metri s.l.m.
19 °C
Foschia
Temp. 24 Ore
18 °C
21 °C
Nord
0 Km/h
Dew point 19 °C
Umidità 100 %
Visibilità 5 Km
Il sole sorge alle ore 06:33
Il sole tramonta alle ore 19:41
| Data e Ora | Cielo e Fenomeni | T °C | DP °C | Um. % | Pres. hPa | Vis. km | Vento km/h | |
|---|---|---|---|---|---|---|---|---|
| Oggi h: 05:53 | Foschia | 19 | 19 | 100 | 1014 | 5 | N 0 | |
| Oggi h: 05:32 | Nebbia | 19 | 19 | 100 | 1015 | 2 | N 0 | |
| Oggi h: 05:23 | Foschia | 19 | 19 | 100 | 1015 | 2 | N 0 | |
| Oggi h: 05:15 | Foschia | 19 | 19 | 100 | 1015 | 6 | N 0 | |
| Oggi h: 04:53 | Foschia | 19 | 19 | 100 | 1015 | 2 | N 0 | |
| Oggi h: 04:45 | Foschia | 19 | 19 | 100 | 1015 | 2 | N 0 | |
| Oggi h: 03:53 | Foschia | 19 | 19 | 100 | 1015 | 5 | N 0 | |
| Oggi h: 03:35 | Foschia | 19 | 19 | 100 | 1016 | 6 | N 0 | |
| Oggi h: 03:28 | Pioggia Foschia | 19 | 19 | 100 | 1016 | 2 | N 5.5 | |
| Oggi h: 03:18 | Pioggia Foschia | 19 | 19 | 100 | 1016 | 2 | N 5.5 | |
| Oggi h: 03:14 | Pioggia Foschia | 19 | 19 | 100 | 1016 | 5 | N 0 | |
| Oggi h: 02:53 | Pioggia Foschia | 19 | 19 | 100 | 1016 | 5 | N 0 | |
| Oggi h: 02:46 | Pioggia Foschia | 19 | 19 | 100 | 1016 | 2 | N 0 | |
| Oggi h: 02:28 | Foschia | 19 | 19 | 100 | 1016 | 2 | N 0 | |
| Oggi h: 02:17 | Nebbia | 19 | 19 | 100 | 1016 | 2 | N 0 | |
| Oggi h: 02:01 | Foschia | 19 | 19 | 100 | 1016 | 5 | N 0 | |
| Oggi h: 01:53 | Foschia | 19 | 19 | 100 | 1016 | 5 | N 0 | |
| Oggi h: 01:48 | Foschia | 19 | 19 | 100 | 1016 | 2 | N 0 | |
| Oggi h: 01:38 | Nebbia | 19 | 19 | 100 | 1016 | 2 | N 0 | |
| Oggi h: 01:17 | Nebbia | 19 | 19 | 100 | 1017 | 2 | N 0 | |
| Oggi h: 00:53 | Nebbia | 19 | 19 | 100 | 1016 | 2 | N 0 | |
| Ieri h: 23:53 | Nebbia | 19 | 19 | 100 | 1017 | 2 | N 0 | |
| Ieri h: 22:58 | Nebbia | 19 | 19 | 100 | 1017 | 2 | N 0 | |
| Ieri h: 22:53 | Nebbia | 19 | 19 | 100 | 1017 | 2 | N 0 | |
| Ieri h: 22:41 | Foschia | 19 | 19 | 100 | 1017 | 5 | N 0 | |
| Ieri h: 22:17 | Foschia | 19 | 19 | 100 | 1017 | 6 | N 0 | |
| Ieri h: 22:09 | Foschia | 19 | 19 | 100 | 1017 | 2 | N 0 | |
| Ieri h: 21:53 | Foschia | 20 | 19 | 93 | 1017 | 6 | N 0 | |
| Ieri h: 21:30 | Foschia | 20 | 19 | 93 | 1017 | 8 | N 0 | |
| Ieri h: 21:19 | Foschia | 20 | 19 | 93 | 1018 | 8 | N 0 | |
| Ieri h: 20:53 | Foschia | 20 | 19 | 93 | 1017 | 8 | N 5.5 | |
| Ieri h: 20:22 | Foschia | 19 | 19 | 100 | 1017 | 6 | N 0 | |
| Ieri h: 19:53 | Coperto | 21 | 19 | 88 | 1017 | 13 | N 5.5 | |
| Ieri h: 19:46 | Molto Nuvoloso | 21 | 19 | 88 | 1017 | 11 | N 0 | |
| Ieri h: 18:53 | Pioggia Foschia | 21 | 20 | 94 | 1017 | 10 | N 5.5 | |
| Ieri h: 18:46 | Pioggia Foschia | 21 | 20 | 94 | 1017 | 10 | N 0 | |
| Ieri h: 18:37 | Pioggia Foschia | 21 | 20 | 94 | 1017 | 8 | N/NE 7.4 | |
| Ieri h: 17:53 | Pioggia Foschia | 21 | 20 | 94 | 1017 | 8 | E/NE 7.4 | |
| Ieri h: 17:09 | Coperto | 21 | 20 | 94 | 1018 | 14 | E/NE 7.4 | |
| Ieri h: 16:53 | Coperto | 21 | 19 | 88 | 1018 | 14 | N 0 | |
| Ieri h: 16:18 | Pioggia Foschia | 21 | 19 | 88 | 1018 | 5 | N 0 | |
| Ieri h: 16:14 | Pioggia Foschia | 21 | 19 | 88 | 1018 | 2 | N 0 | |
| Ieri h: 15:53 | Pioggia Foschia | 21 | 19 | 88 | 1018 | 10 | N 0 | |
| Ieri h: 15:43 | Pioggia Foschia | 21 | 19 | 88 | 1018 | 5 | N 0 | |
| Ieri h: 15:36 | Pioggia Foschia | 21 | 19 | 88 | 1018 | 2 | N 0 | |
| Ieri h: 15:11 | Pioggia Foschia | 21 | 19 | 88 | 1018 | 8 | N 5.5 | |
| Ieri h: 14:53 | Coperto | 21 | 19 | 88 | 1018 | 10 | N 0 | |
| Ieri h: 13:53 | Pioggia | 21 | 19 | 88 | 1019 | 14 | N 0 | |
| Ieri h: 13:42 | Pioggia | 20 | 19 | 93 | 1019 | 11 | N 0 | |
| Ieri h: 13:35 | Pioggia Foschia | 20 | 19 | 93 | 1019 | 10 | N 0 | |
| Ieri h: 13:19 | Pioggia Foschia | 19 | 19 | 100 | 1019 | 6 | N 0 | |
| Ieri h: 13:10 | Pioggia Foschia | 19 | 19 | 100 | 1019 | 5 | N 0 | |
| Ieri h: 13:03 | Pioggia Foschia | 19 | 19 | 100 | 1019 | 2 | N 0 | |
| Ieri h: 12:53 | Pioggia Foschia | 19 | 18 | 93 | 1020 | 3 | N 0 | |
| Ieri h: 12:34 | Pioggia Foschia | 19 | 18 | 93 | 1020 | 2 | N 0 | |
| Ieri h: 12:26 | Pioggia Foschia | 19 | 18 | 93 | 1020 | 5 | N 0 | |
| Ieri h: 12:16 | Pioggia Foschia | 19 | 18 | 93 | 1020 | 3 | N 0 | |
| Ieri h: 11:58 | Pioggia Foschia | 19 | 18 | 93 | 1020 | 2 | N 5.5 | |
| Ieri h: 11:53 | Pioggia Foschia | 19 | 18 | 93 | 1020 | 2 | N 5.5 | |
| Ieri h: 11:36 | Pioggia Foschia | 19 | 18 | 93 | 1020 | 2 | N 0 | |
| Ieri h: 11:27 | Pioggia Foschia | 20 | 18 | 88 | 1020 | 2 | N 0 | |
| Ieri h: 11:16 | Coperto | 20 | 18 | 88 | 1020 | 14 | N 0 | |
| Ieri h: 10:53 | Coperto | 20 | 18 | 88 | 1020 | 10 | N 0 | |
| Ieri h: 09:53 | Coperto | 20 | 18 | 88 | 1019 | 10 | N 5.5 | |
| Ieri h: 08:53 | Coperto | 19 | 18 | 93 | 1020 | 14 | N 5.5 | |
| Ieri h: 08:37 | Coperto | 19 | 17 | 88 | 1020 | 13 | N 0 | |
| Ieri h: 08:21 | Foschia | 18 | 17 | 93 | 1020 | 10 | N 0 | |
| Ieri h: 08:11 | Foschia | 18 | 17 | 93 | 1020 | 8 | N 0 | |
| Ieri h: 07:53 | Foschia | 18 | 17 | 93 | 1020 | 10 | N 0 | |
| Ieri h: 07:48 | Foschia | 18 | 17 | 93 | 1020 | 10 | N 0 | |
| Ieri h: 06:53 | Pioggia Foschia | 18 | 17 | 93 | 1020 | 6 | N 0 | |



